Погода в Лендерах-1

Россия / Республика Карелия     63°24′54″N   31°11′53″E
темп.,
°C
ветер,
м/с
пор.,
м/с
влажн.,
%
обл.,
%
осадки,
мм/ч
давл.,
гПа
погр.,
м
21 января, пт
пт2100:00−4ссв41285100 0.9 989599
03:00−6с41188100 1.1 991397
06:00−6с41192100 0.0 993465
09:00−6с41193100 0.1 995460
12:00−5ссв41291100 0.1 998690
15:00−5ссв41191100 0.1 1001721
18:00−5ссв41292100 0.1 1004687
21:00−5ссв5129291 0.3 1007761
22 января, сб
сб2200:00−6ссв51292100 0.1 1010663
03:00−7ссв51391100 0.1 1012542
06:00−8ссв51492100 0.0 1014480
09:00−9ссв5149397 0.1 1015422
12:00−9ссв4129263 0.1 1017371
15:00−9ссв389579 0.1 1019237
18:00−14с239976 0.0 102148
21:00−16ссв1110085 0.0 102310
23 января, вс
вс2300:00−17вюв1110095 0.0 10249
03:00−17ююв22100100 0.1 102519
06:00−18ююз11100100 0.0 102614
09:00−17ююв23100100 0.1 102758
12:00−12ююз31096100 0.0 1026250
15:00−9ююз4139399 0.1 1026390
18:00−9ююз51493100 0.0 1026370
21:00−7ююз5149399 0.1 1025454
24 января, пн
пн2400:00−6ююз51393100 0.1 1024451
03:00−5ююз51494100 0.1 1023523
06:00−4ююз61793100 0.1 1020597
09:00−4ююз71894100 0.3 1018685
12:00−4ююз71993100 0.4 1016768
15:00−5ююз71792100 0.8 1014796
18:00−5ююз71794100 0.6 1012769
21:00−5ююз71695100 2.8 1011722
25 января, вт
вт2500:00−5ююз51495100 1.3 1011628
03:00−4ююз41195100 1.8 1010452
06:00−3ююз41197100 0.6 1010516
09:00−4зсз379677 1.1 1013219
12:00−11зсз149864 0.0 101678
15:00−11зсз119861 0.0 101810
18:00−17сз119962 0.0 10229
21:00−18ссз119947 0.0 102411